Location: ???????
(52.3000°N, 54.4667°E)
Time: 00:38:08
(UTC+00:00)

ERBS - Pass Details

Date: 24 January 2020
Orbit: 412 x 427 km, 57.0° (Epoch: 22 February)

Event Time Altitude Azimuth Distance (km) Brightness Sun altitude
Rises 14:46:14 0° 240° (WSW) 2,350 7.4 -16.9°
Reaches altitude 10° 14:48:19 10° 240° (WSW) 1,488 6.1 -17.2°
Maximum altitude 14:51:38 87° 158° (SSE) 420 2.1 -17.7°
Enters shadow 14:52:13 58° 65° (ENE) 491 2.2 -17.8°
